Location: Passo di Treia
(43.2833°N, 13.3333°E)
Time: 10:42:41
(UTC+00:00)

Exosat Rocket - Pass Details

Date: 09 December 2019
Orbit: 760 x 2515 km, 72.3° (Epoch: 24 January)

Event Time Altitude Azimuth Distance (km) Brightness Sun altitude
Rises 16:19:14 0° 196° (SSW) 3,613 7.6 -8.6°
Reaches altitude 10° 16:21:55 10° 195° (SSW) 2,521 6.7 -9.1°
Maximum altitude 16:27:21 75° 110° (ESE) 807 3.5 -10.0°
Drops below altitude 10° 16:32:20 10° 26° (NNE) 2,308 5.6 -10.8°
Enters shadow 16:33:26 - 25° (NNE) 2,761 6.0 -11.0°
